SCP
0 0 0 0 0 0 0 0 0 0 0 0 0 0 0 0 0 0 0 0 0 0 0 0 0 0 0 0 0 0 0 0 0 0 0 0 0 0 0 0 0 0 0 0
0 0 0 0 0 0 0 0 0 0 0 0 0 0 0 0 0 0 0 0 0 0 0 0 0 0 0 0 0 0 0 0 0 0 0 0 0 0 0 0 0 0 0 0
0 0 0 0 0 0 0 0 0 0 0 0 0 0 0 0 0 0 0 0 0 0 0 0 0 0 0 0 0 0 0 0 0 0 0 0 0 0 0 0 0 0 0 0
0 0 0 0 0 0 0 0 0 0 0 0 0 0 0 0 0 0 0 0 0 0 0 0 0 0 0 0 0 0 0 0 0 0 0 0 0 0 0 0 0 0 0 0
0 0 0 0 0 0 0 0 0 0 0 0 0 0 0 0 0 0 0 0 0 0 0 0 0 0 0 0 0 0 0 0 0 0 0 0 0 0 0 0 0 0 0 0
0 0 0 0 0 0 0 0 0 -0 0 0 0 0 0 0 0 0 0 0 0 0 0 0 0 0 0 0 0 0 0 0 0 0 0 0 0 0 0 0 0 0 0 0
0 0 0 0 0 0 0 0 0 0 0 0 0 0 0 0 0 0 0 0 0 0 0 0 0 0 0 0 0 0 0 0 0 0 0 0 0 0 0 0 0 0 0 0
0 0 0 0 0 0 0 0 0 0 0 0 0 0 0 0 0 0 0 0 0 0 0 0 0 0 0 0 0 0 0 0 0 0 0 0 0 0 0 0 0 0 0 0
0 0 0 0 0 0 0 0 0 0 0 0 0 0 0 0 0 0 0 0 0 0 0 0 0 0 0 0 0 -0 0 0 0 0 0 0 0 0 0 -0 0 0 0 0
0 0 0 0 0 0 0 0 0 0 0 0 0 0 0 0 0 0 0 0 0 0 0 0 0 0 0 0 -0 -0 0 0 0 0 -0 -0 -0 -0 -0 0 0 0 0 0
0 0 0 0 0 0 0 0 0 0 0 0 0 0 0 0 0 0 0 0 0 0 0 0 0 0 0 -0 -0 0 0 -0 -0 -0 -0 -0 -0 -0 0 0 0 0 0 0
0 0 0 0 0 0 0 0 0 0 0 0 0 0 0 0 0 0 0 0 0 0 0 0 0 0 0 0 -0 -0 -0 -0 -0 -0 0 0 0 0 0 0 0 0 0 0
0 0 0 0 0 0 0 0 0 0 0 0 0 0 0 0 0 0 0 0 0 0 0 0 0 0 0 0 -0 -0 0 0 0 0 0 0 0 0 0 0 0 0 0 0
0 0 0 0 0 0 0 0 0 0 0 0 0 0 0 0 0 0 0 0 0 0 0 0 0 0 0 0 0 0 0 0 0 0 0 0 0 0 0 0 0 0 0 0
0 0 0 0 0 0 0 0 0 0 0 0 0 0 0 0 0 0 0 0 0 0 0 0 0 0 0 0 0 0 0 0 0 0 0 0 0 0 0 0 0 0 0 0
0 0 0 0 0 0 0 0 0 0 0 0 0 0 0 -0 0 0 0 0 0 0 0 0 0 0 0 0 0 0 0 0 0 0 0 0 0 0 0 0 0 0 0 0
0 0 0 0 0 0 0 0 0 0 0 0 0 0 -0 0 0 0 0 0 0 0 0 0 0 0 0 0 0 0 0 0 0 0 0 0 0 0 0 0 0 0 0 0
0 0 0 0 0 0 0 0 0 0 0 0 0 -0 0 0 0 0 0 0 0 0 0 0 0 0 0 0 0 0 0 0 0 0 0 0 0 0 0 0 0 0 0 0
0 0 0 0 0 0 0 0 0 0 -0 -0 -0 -0 0 0 0 0 0 0 0 0 0 0 0 0 0 0 0 0 0 0 0 0 0 0 0 0 0 0 0 0 0 0
0 0 0 -0 0 0 0 0 0 -0 -0 -0 -0 0 0 0 0 0 0 0 0 0 0 0 0 0 0 0 0 0 0 0 0 0 0 0 0 0 0 0 0 0 0 0
0 0 0 -0 0 0 0 0 -0 0 0 -0 0 0 0 0 0 0 0 0 0 0 0 0 0 0 0 0 0 0 0 0 0 0 0 0 0 0 0 0 0 0 0 0
0 0 0 0 0 0 0 -0 0 0 -0 0 0 0 0 0 0 0 0 0 0 0 0 0 0 0 0 0 0 0 0 0 0 0 0 0 0 0 0 0 0 0 0 0
0 0 0 0 0 0 -0 -0 0 0 0 0 0 0 0 0 0 0 0 0 0 0 0 0 0 0 0 0 0 0 0 0 0 0 0 0 0 0 0 0 0 0 0 0
0 0 0 0 0 0 0 0 0 0 -0 0 0 0 0 0 0 0 0 0 0 0 0 0 0 0 0 0 0 0 0 0 0 0 0 0 0 0 0 0 0 0 0 0
0 0 0 -0 0 0 0 0 0 0 -0 0 0 0 0 0 0 0 0 0 0 0 0 0 0 0 0 0 0 0 0 0 0 0 0 0 0 0 0 0 0 0 0 0
-0 -0 0 -0 0 0 0 0 0 0 0 0 0 0 0 0 0 0 0 0 0 0 0 0 0 0 0 0 0 0 0 0 0 0 0 0 0 0 0 0 0 0 0 0
-0 -0 0 0 0 -0 0 0 0 0 0 0 0 0 0 0 0 0 0 0 0 0 0 0 0 0 0 0 0 0 0 0 0 0 0 0 0 0 0 0 0 0 0 0
Wind_Speed_500mb
11 13 9 8 12 15 1 11 7 6 11 7 12 15 16 22 16 9 6 14 27 41 47 39 26 22 16 13 17 19 22 23 27 26 30 34 28 26 26 24 23 24 23 22
7 12 10 7 18 7 11 7 12 13 12 7 16 20 13 5 3 4 10 18 32 40 33 26 19 13 15 17 18 21 21 24 27 30 32 33 26 26 27 26 22 19 23 21
8 10 11 8 13 15 14 13 5 8 3 9 5 8 9 6 6 3 13 29 37 34 26 18 14 16 22 22 19 20 18 24 30 33 31 30 27 26 28 26 23 21 23 22
6 8 3 6 12 18 22 11 9 10 6 3 7 5 8 6 8 12 23 33 35 28 11 14 17 18 18 19 19 19 18 24 28 31 36 33 29 29 30 28 22 14 18 27
5 2 3 4 7 8 6 10 17 11 6 13 18 11 7 8 8 14 26 34 25 12 15 16 18 19 18 20 20 21 22 29 28 29 34 34 31 33 28 24 25 20 21 29
6 4 7 5 5 17 14 7 11 19 15 16 21 5 7 10 10 22 30 24 7 12 15 15 17 20 22 22 24 25 29 28 23 26 30 34 32 36 33 22 22 20 21 31
5 6 8 6 4 17 3 7 12 6 3 5 4 7 6 5 17 22 23 10 7 13 14 16 21 25 28 31 33 32 31 26 20 21 27 31 31 32 29 26 26 28 25 23
3 3 9 3 5 2 8 13 10 4 4 7 7 9 9 13 15 21 12 10 11 10 12 20 25 26 25 32 31 33 28 16 15 17 23 25 28 29 28 23 20 21 20 24
9 8 1 1 6 17 12 15 5 1 6 12 10 7 10 9 14 7 10 13 15 20 22 18 22 23 25 20 31 27 25 23 19 19 21 23 28 30 28 19 25 25 30 25
6 0 12 24 24 18 10 9 6 10 13 9 7 8 8 7 9 13 13 18 21 23 26 25 25 25 22 23 27 26 26 20 19 18 21 27 29 29 30 30 30 30 32 23
4 6 19 14 14 12 9 6 10 14 12 7 8 12 14 20 20 18 19 19 20 24 24 22 24 21 32 31 30 23 22 21 19 22 26 28 26 26 26 25 32 33 32 26
11 33 11 25 22 12 2 7 11 15 8 9 10 15 21 21 17 20 22 24 25 21 19 22 17 22 34 34 27 20 17 19 22 26 20 23 24 25 20 24 26 38 39 38
8 35 11 29 22 11 1 5 9 6 9 9 12 20 19 15 18 22 25 20 16 18 20 22 26 26 31 30 28 25 14 24 21 18 21 23 22 25 25 27 30 43 41 45
25 31 29 28 12 12 3 8 9 8 11 7 21 22 16 17 20 19 22 20 13 17 21 26 26 27 25 24 25 20 25 37 34 27 32 30 28 30 34 38 40 42 40 31
30 4 10 19 20 13 4 5 3 11 11 16 23 16 13 13 13 15 19 21 15 18 25 29 31 35 30 29 32 32 33 32 34 35 30 30 32 36 39 41 44 40 38 38
22 19 24 20 17 10 4 7 7 15 15 24 19 10 14 11 10 10 18 20 20 23 28 31 36 36 44 47 47 40 38 37 35 35 35 37 38 38 39 40 43 46 45 44
35 30 26 21 15 9 8 9 15 19 26 24 14 13 11 14 14 9 16 20 20 24 26 30 33 31 33 52 50 47 46 42 41 42 40 37 35 37 38 37 40 48 53 52
15 11 15 7 9 9 12 19 22 30 29 19 13 12 11 17 13 12 11 13 14 18 25 31 31 38 37 55 53 52 52 59 56 52 45 41 43 43 45 44 45 51 56 55
14 13 11 8 9 10 21 28 31 33 24 17 11 5 7 11 15 8 10 10 14 17 26 27 29 34 38 48 49 52 46 49 55 57 67 64 59 52 50 52 51 56 51 51
19 12 9 9 13 18 31 34 38 29 21 14 10 10 7 7 9 10 13 15 15 19 26 24 29 31 34 34 37 38 37 38 50 48 49 52 53 53 50 55 53 52 51 50
15 10 7 11 21 31 31 38 35 25 20 14 12 11 10 12 6 5 10 14 17 22 30 26 26 24 32 35 36 42 33 37 38 40 43 39 42 48 54 55 53 50 51 53
10 6 7 13 29 34 38 39 31 24 18 8 10 10 1 6 7 12 14 17 20 20 26 26 26 31 26 24 25 27 26 29 32 34 36 39 41 44 43 42 44 43 47 47
6 5 6 18 31 37 39 36 28 22 13 13 8 11 4 9 8 12 21 19 16 14 12 16 16 12 14 22 21 24 25 22 23 25 26 28 31 33 34 35 36 36 37 38
4 7 9 26 34 38 42 36 27 19 15 9 6 9 12 5 17 23 19 15 14 13 12 8 12 13 13 14 16 17 16 15 14 15 16 18 21 22 25 27 29 30 31 31
6 5 9 32 35 42 42 35 22 20 15 6 5 20 29 28 25 21 15 11 7 17 22 21 20 15 4 7 8 9 11 11 13 13 14 16 18 20 22 23 25 26 27 27
11 8 12 32 36 47 40 33 23 18 13 14 15 24 21 17 15 12 7 4 7 9 14 13 14 16 17 17 14 13 13 14 15 16 16 16 15 17 19 22 24 25 25 25
12 10 11 34 39 49 41 37 28 23 12 12 5 11 10 15 11 6 4 9 11 11 16 19 19 17 14 9 6 10 11 10 8 7 9 12 14 18 19 21 24 26 27 27
Wind_Direction_500mb
244 252 257 256 304 314 293 272 185 269 118 158 155 145 141 144 138 88 5 355 350 342 336 334 339 350 14 49 24 18 12 20 18 11 5 356 355 357 359 353 350 351 351 347
286 315 317 322 344 110 18 49 51 70 63 66 102 105 99 59 40 47 349 345 337 332 330 338 355 39 21 10 7 10 17 18 13 10 3 5 10 10 4 359 355 2 355 353
273 338 339 15 1 73 72 37 85 53 1 164 119 134 119 189 238 350 347 341 336 327 331 349 34 19 8 5 0 6 26 24 13 6 1 359 356 353 358 1 2 2 355 346
224 16 48 239 54 86 84 42 78 83 47 222 169 177 185 253 307 328 330 333 329 329 8 25 23 16 16 15 20 26 21 3 1 5 1 355 356 356 353 351 356 349 340 336
115 135 172 212 6 316 23 28 353 74 124 190 208 176 252 237 285 318 331 330 335 25 24 22 12 14 14 16 18 5 352 351 356 344 349 356 358 353 341 334 339 330 323 326
94 169 251 151 287 354 152 197 167 250 233 208 196 299 273 242 306 330 329 340 17 35 20 12 12 5 357 356 348 339 343 341 335 331 347 348 344 342 337 328 329 323 319 316
111 229 285 198 263 312 107 262 189 208 346 325 260 265 324 316 323 334 344 20 46 18 19 16 356 349 351 344 330 324 321 325 320 331 343 341 339 345 345 328 319 318 323 332
94 124 297 47 324 206 183 128 143 101 16 352 340 311 314 315 334 353 41 64 35 23 11 354 352 8 359 354 3 352 349 324 324 336 336 338 350 352 348 347 352 360 357 349
158 224 42 335 187 134 157 151 152 25 348 337 317 315 317 321 336 33 65 38 22 4 356 4 346 352 344 342 348 357 1 343 334 331 331 345 352 356 358 5 12 15 10 9
80 341 113 122 120 135 116 98 74 18 3 8 12 356 5 19 75 91 55 27 16 20 3 5 1 353 358 349 347 346 358 357 1 354 352 343 352 355 5 14 14 9 1 12
72 77 123 158 156 140 110 56 18 13 8 36 56 55 71 85 83 59 31 26 9 353 346 343 349 2 358 351 351 354 1 9 11 354 347 356 356 357 2 18 22 14 27 39
217 195 166 181 172 153 68 13 9 6 42 95 76 81 96 85 54 37 27 8 5 359 3 3 5 358 3 0 360 5 0 7 356 350 2 3 10 5 34 39 41 68 34 37
182 181 194 159 161 167 334 40 16 18 104 108 98 110 98 58 42 38 12 357 8 20 13 2 3 358 360 1 359 353 355 348 351 10 12 16 45 61 52 57 71 67 51 56
149 142 138 163 177 175 85 47 39 94 116 99 130 119 87 55 50 20 10 8 16 19 11 7 8 6 6 356 355 13 55 57 51 63 64 57 58 62 69 75 65 57 68 73
157 187 206 181 170 156 109 54 101 133 130 126 134 107 64 46 39 8 6 6 34 23 26 29 32 22 23 51 55 50 57 55 63 65 62 69 71 74 79 77 72 67 72 78
175 164 159 169 160 146 131 157 150 137 130 137 127 85 42 38 15 23 42 60 38 38 41 46 36 52 69 68 63 60 61 65 71 75 76 79 78 76 77 82 70 72 76 80
163 161 172 176 176 165 156 156 149 137 135 132 111 75 63 27 19 89 72 61 44 38 47 45 43 67 62 62 71 64 58 67 73 78 78 74 72 69 74 78 74 77 79 84
196 168 174 194 180 173 165 149 143 138 135 118 100 91 55 20 38 116 83 48 44 48 61 54 68 82 81 77 66 64 70 72 73 76 78 78 76 75 78 83 87 86 88 86
165 163 154 153 146 146 150 144 146 142 128 116 120 104 43 57 70 88 51 71 56 67 73 71 66 98 91 82 74 65 67 67 78 78 73 76 76 80 83 88 93 95 92 89
131 109 102 137 151 154 148 150 149 140 126 118 81 63 50 144 76 82 72 90 72 75 96 92 92 105 103 84 80 63 53 77 85 81 72 64 66 76 86 93 95 94 92 88
119 91 93 146 151 149 149 152 148 138 133 109 85 59 77 112 89 70 89 96 91 100 108 97 105 110 107 93 80 70 75 84 71 67 70 77 82 91 85 87 87 88 92 89
114 89 108 154 153 153 155 155 149 143 139 101 57 15 81 128 97 94 109 92 107 109 113 107 100 107 102 86 80 70 78 75 77 78 70 76 84 90 93 89 88 89 93 92
101 79 115 155 156 157 158 157 155 158 148 102 65 16 58 143 84 114 105 108 116 127 124 123 118 87 67 81 87 91 89 78 76 79 82 77 79 80 84 88 92 95 97 96
111 100 131 155 156 160 161 165 165 160 134 104 29 1 35 188 140 131 116 104 107 124 150 136 129 124 103 89 83 81 83 80 79 78 82 84 81 80 82 84 92 97 98 97
90 89 158 169 165 165 164 167 161 143 147 82 50 126 113 110 113 112 101 84 128 158 146 141 141 140 85 116 114 111 106 89 78 83 88 85 87 87 87 88 91 96 99 96
81 74 149 168 168 169 170 172 168 150 136 110 123 146 141 132 132 134 150 136 117 139 156 154 165 164 148 128 111 99 94 86 78 77 83 93 99 98 96 93 95 100 98 95
106 79 138 171 173 176 176 179 181 171 160 154 159 184 171 153 142 158 194 179 182 153 143 141 134 132 137 135 94 94 95 88 72 72 95 106 109 105 103 103 103 103 100 95
Wind_Speed_850mb
11 13 9 8 12 15 1 11 7 6 11 7 12 15 16 22 16 9 6 14 27 41 47 39 26 22 16 13 17 19 22 23 27 26 30 34 28 26 26 24 23 24 23 22
7 12 10 7 18 7 11 7 12 13 12 7 16 20 13 5 3 4 10 18 32 40 33 26 19 13 15 17 18 21 21 24 27 30 32 33 26 26 27 26 22 19 23 21
8 10 11 8 13 15 14 13 5 8 3 9 5 8 9 6 6 3 13 29 37 34 26 18 14 16 22 22 19 20 18 24 30 33 31 30 27 26 28 26 23 21 23 22
6 8 3 6 12 18 22 11 9 10 6 3 7 5 8 6 8 12 23 33 35 28 11 14 17 18 18 19 19 19 18 24 28 31 36 33 29 29 30 28 22 14 18 27
5 2 3 4 7 8 6 10 17 11 6 13 18 11 7 8 8 14 26 34 25 12 15 16 18 19 18 20 20 21 22 29 28 29 34 34 31 33 28 24 25 20 21 29
6 4 7 5 5 17 14 7 11 19 15 16 21 5 7 10 10 22 30 24 7 12 15 15 17 20 22 22 24 25 29 28 23 26 30 34 32 36 33 22 22 20 21 31
5 6 8 6 4 17 3 7 12 6 3 5 4 7 6 5 17 22 23 10 7 13 14 16 21 25 28 31 33 32 31 26 20 21 27 31 31 32 29 26 26 28 25 23
3 3 9 3 5 2 8 13 10 4 4 7 7 9 9 13 15 21 12 10 11 10 12 20 25 26 25 32 31 33 28 16 15 17 23 25 28 29 28 23 20 21 20 24
9 8 1 1 6 17 12 15 5 1 6 12 10 7 10 9 14 7 10 13 15 20 22 18 22 23 25 20 31 27 25 23 19 19 21 23 28 30 28 19 25 25 30 25
6 0 12 24 24 18 10 9 6 10 13 9 7 8 8 7 9 13 13 18 21 23 26 25 25 25 22 23 27 26 26 20 19 18 21 27 29 29 30 30 30 30 32 23
4 6 19 14 14 12 9 6 10 14 12 7 8 12 14 20 20 18 19 19 20 24 24 22 24 21 32 31 30 23 22 21 19 22 26 28 26 26 26 25 32 33 32 26
11 33 11 25 22 12 2 7 11 15 8 9 10 15 21 21 17 20 22 24 25 21 19 22 17 22 34 34 27 20 17 19 22 26 20 23 24 25 20 24 26 38 39 38
8 35 11 29 22 11 1 5 9 6 9 9 12 20 19 15 18 22 25 20 16 18 20 22 26 26 31 30 28 25 14 24 21 18 21 23 22 25 25 27 30 43 41 45
25 31 29 28 12 12 3 8 9 8 11 7 21 22 16 17 20 19 22 20 13 17 21 26 26 27 25 24 25 20 25 37 34 27 32 30 28 30 34 38 40 42 40 31
30 4 10 19 20 13 4 5 3 11 11 16 23 16 13 13 13 15 19 21 15 18 25 29 31 35 30 29 32 32 33 32 34 35 30 30 32 36 39 41 44 40 38 38
22 19 24 20 17 10 4 7 7 15 15 24 19 10 14 11 10 10 18 20 20 23 28 31 36 36 44 47 47 40 38 37 35 35 35 37 38 38 39 40 43 46 45 44
35 30 26 21 15 9 8 9 15 19 26 24 14 13 11 14 14 9 16 20 20 24 26 30 33 31 33 52 50 47 46 42 41 42 40 37 35 37 38 37 40 48 53 52
15 11 15 7 9 9 12 19 22 30 29 19 13 12 11 17 13 12 11 13 14 18 25 31 31 38 37 55 53 52 52 59 56 52 45 41 43 43 45 44 45 51 56 55
14 13 11 8 9 10 21 28 31 33 24 17 11 5 7 11 15 8 10 10 14 17 26 27 29 34 38 48 49 52 46 49 55 57 67 64 59 52 50 52 51 56 51 51
19 12 9 9 13 18 31 34 38 29 21 14 10 10 7 7 9 10 13 15 15 19 26 24 29 31 34 34 37 38 37 38 50 48 49 52 53 53 50 55 53 52 51 50
15 10 7 11 21 31 31 38 35 25 20 14 12 11 10 12 6 5 10 14 17 22 30 26 26 24 32 35 36 42 33 37 38 40 43 39 42 48 54 55 53 50 51 53
10 6 7 13 29 34 38 39 31 24 18 8 10 10 1 6 7 12 14 17 20 20 26 26 26 31 26 24 25 27 26 29 32 34 36 39 41 44 43 42 44 43 47 47
6 5 6 18 31 37 39 36 28 22 13 13 8 11 4 9 8 12 21 19 16 14 12 16 16 12 14 22 21 24 25 22 23 25 26 28 31 33 34 35 36 36 37 38
4 7 9 26 34 38 42 36 27 19 15 9 6 9 12 5 17 23 19 15 14 13 12 8 12 13 13 14 16 17 16 15 14 15 16 18 21 22 25 27 29 30 31 31
6 5 9 32 35 42 42 35 22 20 15 6 5 20 29 28 25 21 15 11 7 17 22 21 20 15 4 7 8 9 11 11 13 13 14 16 18 20 22 23 25 26 27 27
11 8 12 32 36 47 40 33 23 18 13 14 15 24 21 17 15 12 7 4 7 9 14 13 14 16 17 17 14 13 13 14 15 16 16 16 15 17 19 22 24 25 25 25
12 10 11 34 39 49 41 37 28 23 12 12 5 11 10 15 11 6 4 9 11 11 16 19 19 17 14 9 6 10 11 10 8 7 9 12 14 18 19 21 24 26 27 27
Wind_Direction_850mb
244 252 257 256 304 314 293 272 185 269 118 158 155 145 141 144 138 88 5 355 350 342 336 334 339 350 14 49 24 18 12 20 18 11 5 356 355 357 359 353 350 351 351 347
286 315 317 322 344 110 18 49 51 70 63 66 102 105 99 59 40 47 349 345 337 332 330 338 355 39 21 10 7 10 17 18 13 10 3 5 10 10 4 359 355 2 355 353
273 338 339 15 1 73 72 37 85 53 1 164 119 134 119 189 238 350 347 341 336 327 331 349 34 19 8 5 0 6 26 24 13 6 1 359 356 353 358 1 2 2 355 346
224 16 48 239 54 86 84 42 78 83 47 222 169 177 185 253 307 328 330 333 329 329 8 25 23 16 16 15 20 26 21 3 1 5 1 355 356 356 353 351 356 349 340 336
115 135 172 212 6 316 23 28 353 74 124 190 208 176 252 237 285 318 331 330 335 25 24 22 12 14 14 16 18 5 352 351 356 344 349 356 358 353 341 334 339 330 323 326
94 169 251 151 287 354 152 197 167 250 233 208 196 299 273 242 306 330 329 340 17 35 20 12 12 5 357 356 348 339 343 341 335 331 347 348 344 342 337 328 329 323 319 316
111 229 285 198 263 312 107 262 189 208 346 325 260 265 324 316 323 334 344 20 46 18 19 16 356 349 351 344 330 324 321 325 320 331 343 341 339 345 345 328 319 318 323 332
94 124 297 47 324 206 183 128 143 101 16 352 340 311 314 315 334 353 41 64 35 23 11 354 352 8 359 354 3 352 349 324 324 336 336 338 350 352 348 347 352 360 357 349
158 224 42 335 187 134 157 151 152 25 348 337 317 315 317 321 336 33 65 38 22 4 356 4 346 352 344 342 348 357 1 343 334 331 331 345 352 356 358 5 12 15 10 9
80 341 113 122 120 135 116 98 74 18 3 8 12 356 5 19 75 91 55 27 16 20 3 5 1 353 358 349 347 346 358 357 1 354 352 343 352 355 5 14 14 9 1 12
72 77 123 158 156 140 110 56 18 13 8 36 56 55 71 85 83 59 31 26 9 353 346 343 349 2 358 351 351 354 1 9 11 354 347 356 356 357 2 18 22 14 27 39
217 195 166 181 172 153 68 13 9 6 42 95 76 81 96 85 54 37 27 8 5 359 3 3 5 358 3 0 360 5 0 7 356 350 2 3 10 5 34 39 41 68 34 37
182 181 194 159 161 167 334 40 16 18 104 108 98 110 98 58 42 38 12 357 8 20 13 2 3 358 360 1 359 353 355 348 351 10 12 16 45 61 52 57 71 67 51 56
149 142 138 163 177 175 85 47 39 94 116 99 130 119 87 55 50 20 10 8 16 19 11 7 8 6 6 356 355 13 55 57 51 63 64 57 58 62 69 75 65 57 68 73
157 187 206 181 170 156 109 54 101 133 130 126 134 107 64 46 39 8 6 6 34 23 26 29 32 22 23 51 55 50 57 55 63 65 62 69 71 74 79 77 72 67 72 78
175 164 159 169 160 146 131 157 150 137 130 137 127 85 42 38 15 23 42 60 38 38 41 46 36 52 69 68 63 60 61 65 71 75 76 79 78 76 77 82 70 72 76 80
163 161 172 176 176 165 156 156 149 137 135 132 111 75 63 27 19 89 72 61 44 38 47 45 43 67 62 62 71 64 58 67 73 78 78 74 72 69 74 78 74 77 79 84
196 168 174 194 180 173 165 149 143 138 135 118 100 91 55 20 38 116 83 48 44 48 61 54 68 82 81 77 66 64 70 72 73 76 78 78 76 75 78 83 87 86 88 86
165 163 154 153 146 146 150 144 146 142 128 116 120 104 43 57 70 88 51 71 56 67 73 71 66 98 91 82 74 65 67 67 78 78 73 76 76 80 83 88 93 95 92 89
131 109 102 137 151 154 148 150 149 140 126 118 81 63 50 144 76 82 72 90 72 75 96 92 92 105 103 84 80 63 53 77 85 81 72 64 66 76 86 93 95 94 92 88
119 91 93 146 151 149 149 152 148 138 133 109 85 59 77 112 89 70 89 96 91 100 108 97 105 110 107 93 80 70 75 84 71 67 70 77 82 91 85 87 87 88 92 89
114 89 108 154 153 153 155 155 149 143 139 101 57 15 81 128 97 94 109 92 107 109 113 107 100 107 102 86 80 70 78 75 77 78 70 76 84 90 93 89 88 89 93 92
101 79 115 155 156 157 158 157 155 158 148 102 65 16 58 143 84 114 105 108 116 127 124 123 118 87 67 81 87 91 89 78 76 79 82 77 79 80 84 88 92 95 97 96
111 100 131 155 156 160 161 165 165 160 134 104 29 1 35 188 140 131 116 104 107 124 150 136 129 124 103 89 83 81 83 80 79 78 82 84 81 80 82 84 92 97 98 97
90 89 158 169 165 165 164 167 161 143 147 82 50 126 113 110 113 112 101 84 128 158 146 141 141 140 85 116 114 111 106 89 78 83 88 85 87 87 87 88 91 96 99 96
81 74 149 168 168 169 170 172 168 150 136 110 123 146 141 132 132 134 150 136 117 139 156 154 165 164 148 128 111 99 94 86 78 77 83 93 99 98 96 93 95 100 98 95
106 79 138 171 173 176 176 179 181 171 160 154 159 184 171 153 142 158 194 179 182 153 143 141 134 132 137 135 94 94 95 88 72 72 95 106 109 105 103 103 103 103 100 95